Overview Statistics Trail Chart Weather Telemetry Raw packets
 

This is the latest recevied weather packets stored in our database for station/object K6CEG. If no packets are shown the sender has not sent any weather packets the latest 10 day(s).

<< 8 9 10 11 12 13 14 >>
Time Temp. Humidity Pressure Rain* Wind** Luminosity Snow
1788620812 20.56° C 67% 1016.3 hPa 0 mm - 123 W/m² -
1788620510 20.56° C 68% 1016.4 hPa 0 mm - 111 W/m² -
1788620208 18.89° C 72% 1016.2 hPa 0 mm - 101 W/m² -
1788619903 18.33° C 74% 1016.1 hPa 0 mm - 92 W/m² -
1788619597 17.78° C 76% 1016.1 hPa 0 mm - 35 W/m² -
1788619297 17.78° C 76% 1016.1 hPa 0 mm - 26 W/m² -
1788618996 17.78° C 76% 1016.1 hPa 0 mm - 23 W/m² -
1788618692 17.78° C 76% 1016.1 hPa 0 mm - 22 W/m² -
1788618390 17.22° C 75% 1016 hPa 0 mm - 20 W/m² -
1788618091 17.22° C 75% 1016 hPa 0 mm - 19 W/m² -
1788617791 17.22° C 76% 1016 hPa 0 mm - 17 W/m² -
1788617487 16.67° C 76% 1015.9 hPa 0 mm - 18 W/m² -
1788617182 16.67° C 76% 1015.9 hPa 0 mm - 13 W/m² -
1788616881 16.67° C 77% 1015.7 hPa 0 mm - 11 W/m² -
1788616576 16.11° C 77% 1015.7 hPa 0 mm - 10 W/m² -
1788616272 15.56° C 76% 1015.7 hPa 0 mm - 7 W/m² -
1788615967 16.11° C 76% 1015.7 hPa 0 mm - 5 W/m² -
1788615669 16.11° C 76% 1015.6 hPa 0 mm - 3 W/m² -
1788615361 16.11° C 76% 1015.6 hPa 0 mm - 2 W/m² -
1788615061 16.67° C 76% 1015.3 hPa 0 mm - 1 W/m² -
1788614760 16.67° C 75% 1015.3 hPa 0 mm - 0 W/m² -
1788614455 16.11° C 74% 1015.3 hPa 0 mm - 0 W/m² -
1788614150 16.67° C 74% 1015.4 hPa 0 mm - 0 W/m² -
1788613846 16.67° C 74% 1015.1 hPa 0 mm - 0 W/m² -
1788613545 16.67° C 74% 1015.2 hPa 0 mm - 0 W/m² -

* Rain latest hour (hover to see other rain measurements)
** Current wind speed in m/s (hover to see current wind gust speed)